CMP401 MPTO-KLAX

Flight info

Callsign CMP401
Flight time N/A
Altitude 36000
Route SIMAN3A SIMAN DCT ALGEN DCT AMUBI DCT VOKAS DCT ATUTO DCT AXOMU DCT RAULS DCT CVM/N0460F380 DCT AVAPA DCT ASUTA DCT AMMOR OLAAA2
Aircraft A20N/M-SDE2E3FGHIRWXY/LB1

Departure

Time 2026-04-28 18:59
Airport Tocumen International Airport (MPTO)

Arrival

Time N/A
Airport Los Angeles International Airport (KLAX)
Time Latitude Longitude Altitude Speed Heading
2026-04-28 18:26 9.06305 -79.38902 51 ft 0 kts 270°
2026-04-28 18:37 9.06305 -79.38896 51 ft 2 kts 270°
2026-04-28 18:38 9.06305 -79.38882 51 ft 2 kts 270°
2026-04-28 18:38 9.06305 -79.38866 51 ft 2 kts 270°
2026-04-28 18:38 9.06305 -79.38853 51 ft 0 kts 270°
2026-04-28 18:38 9.06306 -79.38846 51 ft 1 kts 234°
2026-04-28 18:39 9.06312 -79.38841 51 ft 0 kts 181°
2026-04-28 18:39 9.06317 -79.38843 51 ft 1 kts 170°
2026-04-28 18:39 9.06320 -79.38843 51 ft 0 kts 173°
2026-04-28 18:41 9.06318 -79.38843 51 ft 0 kts 173°
2026-04-28 18:53 9.06315 -79.38843 51 ft 1 kts 173°
2026-04-28 18:53 9.06288 -79.38839 50 ft 6 kts 173°
2026-04-28 18:53 9.06228 -79.38832 49 ft 10 kts 176°
2026-04-28 18:53 9.06147 -79.38862 48 ft 14 kts 232°
2026-04-28 18:54 9.06087 -79.38959 46 ft 17 kts 239°
2026-04-28 18:54 9.05996 -79.39051 45 ft 20 kts 210°
2026-04-28 18:54 9.05864 -79.39127 41 ft 22 kts 210°
2026-04-28 18:54 9.05731 -79.39198 41 ft 17 kts 186°
2026-04-28 18:55 9.05660 -79.39110 40 ft 17 kts 117°
2026-04-28 18:55 9.05621 -79.39037 39 ft 17 kts 118°
2026-04-28 18:55 9.05488 -79.39037 37 ft 18 kts 209°
2026-04-28 18:55 9.05374 -79.39105 35 ft 19 kts 211°
2026-04-28 18:56 9.05253 -79.39173 34 ft 20 kts 209°
2026-04-28 18:56 9.05129 -79.39243 34 ft 20 kts 210°
2026-04-28 18:56 9.05007 -79.39314 34 ft 20 kts 210°
2026-04-28 18:56 9.04882 -79.39382 34 ft 19 kts 196°
2026-04-28 18:57 9.04788 -79.39301 33 ft 19 kts 113°
2026-04-28 18:57 9.04809 -79.39233 32 ft 7 kts 33°
2026-04-28 18:57 9.04869 -79.39199 31 ft 23 kts 28°
2026-04-28 18:57 9.05185 -79.39020 34 ft 78 kts 30°
2026-04-28 18:58 9.05800 -79.38671 44 ft 123 kts 29°
2026-04-28 18:58 9.06671 -79.38174 52 ft 161 kts 30°
2026-04-28 18:58 9.07662 -79.37560 363 ft 164 kts 33°
2026-04-28 18:58 9.08657 -79.36968 708 ft 168 kts 27°
2026-04-28 18:59 9.09722 -79.36391 962 ft 181 kts 26°
2026-04-28 18:59 9.10886 -79.35761 1225 ft 194 kts 27°
2026-04-28 18:59 9.12112 -79.35078 1477 ft 209 kts 27°
2026-04-28 18:59 9.13444 -79.34335 1684 ft 228 kts 28°
2026-04-28 19:00 9.14883 -79.33522 1984 ft 244 kts 28°
2026-04-28 19:00 9.16401 -79.32661 2495 ft 251 kts 28°
2026-04-28 19:00 9.17920 -79.31797 3121 ft 253 kts 28°
2026-04-28 19:00 9.19455 -79.30923 3724 ft 256 kts 28°
2026-04-28 19:01 9.21058 -79.30115 4330 ft 259 kts 15°
2026-04-28 19:01 9.22856 -79.30064 4971 ft 264 kts 347°
2026-04-28 19:01 9.24519 -79.30874 5610 ft 271 kts 321°
2026-04-28 19:01 9.25681 -79.32383 6207 ft 280 kts 294°
2026-04-28 19:02 9.26075 -79.34325 6828 ft 287 kts 274°
2026-04-28 19:02 9.26150 -79.36341 7454 ft 290 kts 274°
2026-04-28 19:02 9.26231 -79.38365 8065 ft 293 kts 274°
2026-04-28 19:02 9.26328 -79.40437 8707 ft 296 kts 274°
2026-04-28 19:03 9.26434 -79.42499 9256 ft 299 kts 274°
2026-04-28 19:03 9.26548 -79.44603 9817 ft 301 kts 274°
2026-04-28 19:03 9.26665 -79.46728 10428 ft 303 kts 274°
2026-04-28 19:03 9.26782 -79.48849 10994 ft 306 kts 273°
2026-04-28 19:04 9.27009 -79.51001 11392 ft 313 kts 282°
2026-04-28 19:04 9.27556 -79.53190 11660 ft 327 kts 286°
2026-04-28 19:04 9.28199 -79.55454 11922 ft 341 kts 286°
2026-04-28 19:04 9.28852 -79.57802 12154 ft 354 kts 285°
2026-04-28 19:05 9.29499 -79.60222 12395 ft 366 kts 285°
2026-04-28 19:05 9.30152 -79.62732 12818 ft 371 kts 284°
2026-04-28 19:05 9.30803 -79.65275 13315 ft 373 kts 284°
2026-04-28 19:05 9.31452 -79.67828 13785 ft 376 kts 284°
2026-04-28 19:06 9.32099 -79.70383 14237 ft 379 kts 284°
2026-04-28 19:06 9.32534 -79.72103 14523 ft 381 kts 284°
2026-04-28 19:06 9.33416 -79.75591 15139 ft 384 kts 284°
2026-04-28 19:06 9.34078 -79.78210 15564 ft 387 kts 284°
2026-04-28 19:07 9.34744 -79.80848 15968 ft 390 kts 284°
2026-04-28 19:07 9.35419 -79.83498 16397 ft 392 kts 285°
2026-04-28 19:07 9.36278 -79.86120 16803 ft 394 kts 291°
2026-04-28 19:07 9.37394 -79.88662 17194 ft 397 kts 297°
2026-04-28 19:08 9.38714 -79.91120 17598 ft 399 kts 299°
2026-04-28 19:08 9.40090 -79.93573 17983 ft 401 kts 300°
2026-04-28 19:08 9.41480 -79.96040 18368 ft 403 kts 300°
2026-04-28 19:08 9.42858 -79.98492 18765 ft 405 kts 299°
2026-04-28 19:09 9.44257 -80.00993 19156 ft 407 kts 299°
2026-04-28 19:09 9.45657 -80.03500 19534 ft 409 kts 299°
2026-04-28 19:09 9.47044 -80.05989 19922 ft 410 kts 298°
2026-04-28 19:09 9.48448 -80.08511 20300 ft 412 kts 298°
2026-04-28 19:10 9.49861 -80.11050 20664 ft 414 kts 298°
2026-04-28 19:10 9.51280 -80.13605 21029 ft 416 kts 298°
2026-04-28 19:10 9.52686 -80.16136 21389 ft 417 kts 298°
2026-04-28 19:10 9.54123 -80.18725 21748 ft 419 kts 298°
2026-04-28 19:11 9.55539 -80.21275 22096 ft 421 kts 298°
2026-04-28 19:11 9.56984 -80.23875 22447 ft 423 kts 297°
2026-04-28 19:11 9.58429 -80.26482 22789 ft 424 kts 297°
2026-04-28 19:11 9.59875 -80.29088 23134 ft 426 kts 297°
2026-04-28 19:12 9.61333 -80.31717 23474 ft 427 kts 297°
2026-04-28 19:12 9.62770 -80.34309 23795 ft 429 kts 297°
2026-04-28 19:12 9.64232 -80.36945 24120 ft 430 kts 297°
2026-04-28 19:12 9.65715 -80.39621 24440 ft 432 kts 297°
2026-04-28 19:13 9.67171 -80.42245 24745 ft 433 kts 297°
2026-04-28 19:13 9.68651 -80.44918 25047 ft 435 kts 297°
2026-04-28 19:13 9.70139 -80.47604 25343 ft 436 kts 297°
2026-04-28 19:13 9.71626 -80.50288 25629 ft 437 kts 297°
2026-04-28 19:14 9.73096 -80.52943 25904 ft 439 kts 297°
2026-04-28 19:14 9.74596 -80.55653 26181 ft 440 kts 297°
2026-04-28 19:14 9.76102 -80.58373 26448 ft 441 kts 297°
2026-04-28 19:14 9.77606 -80.61092 26712 ft 443 kts 297°
2026-04-28 19:15 9.79113 -80.63814 26964 ft 444 kts 297°
2026-04-28 19:15 9.80613 -80.66528 27207 ft 445 kts 296°
2026-04-28 19:15 9.82127 -80.69264 27459 ft 447 kts 296°
2026-04-28 19:15 9.83154 -80.71124 27629 ft 447 kts 296°
2026-04-28 19:16 9.85178 -80.74787 27936 ft 449 kts 296°
2026-04-28 19:16 9.86703 -80.77546 28173 ft 450 kts 296°
2026-04-28 19:16 9.88228 -80.80307 28427 ft 451 kts 296°
2026-04-28 19:16 9.89759 -80.83076 28777 ft 449 kts 296°
2026-04-28 19:17 9.91282 -80.85838 29139 ft 447 kts 296°
2026-04-28 19:17 9.92798 -80.88583 29467 ft 446 kts 296°
2026-04-28 19:17 9.94314 -80.91331 29774 ft 446 kts 296°
2026-04-28 19:17 9.95826 -80.94073 30089 ft 445 kts 296°
2026-04-28 19:18 9.97368 -80.96747 30392 ft 445 kts 298°
2026-04-28 19:18 9.99067 -80.99366 30696 ft 446 kts 301°
2026-04-28 19:18 10.00938 -81.01932 31006 ft 447 kts 304°
2026-04-28 19:18 10.02893 -81.04326 31301 ft 448 kts 307°
2026-04-28 19:19 10.05015 -81.06661 31581 ft 448 kts 309°
2026-04-28 19:19 10.07180 -81.08948 31870 ft 448 kts 310°
2026-04-28 19:19 10.09328 -81.11205 32128 ft 448 kts 310°
2026-04-28 19:19 10.11501 -81.13488 32363 ft 448 kts 309°
2026-04-28 19:20 10.13665 -81.15765 32604 ft 448 kts 309°
2026-04-28 19:20 10.15827 -81.18043 32861 ft 448 kts 309°
2026-04-28 19:20 10.17991 -81.20327 33146 ft 447 kts 309°
2026-04-28 19:20 10.20144 -81.22598 33453 ft 445 kts 309°
2026-04-28 19:21 10.22288 -81.24860 33745 ft 443 kts 309°
2026-04-28 19:21 10.24396 -81.27086 34018 ft 442 kts 309°
2026-04-28 19:21 10.26527 -81.29337 34283 ft 441 kts 309°
2026-04-28 19:21 10.28639 -81.31569 34526 ft 439 kts 309°
2026-04-28 19:22 10.30779 -81.33831 34758 ft 438 kts 309°
2026-04-28 19:22 10.32185 -81.35318 34903 ft 438 kts 309°
2026-04-28 19:22 10.34985 -81.38279 35170 ft 437 kts 309°
2026-04-28 19:22 10.37075 -81.40491 35358 ft 436 kts 309°
2026-04-28 19:23 10.39171 -81.42709 35528 ft 436 kts 309°
2026-04-28 19:23 10.41275 -81.44936 35680 ft 436 kts 309°
2026-04-28 19:23 10.43383 -81.47167 35813 ft 436 kts 309°
2026-04-28 19:23 10.45466 -81.49372 35893 ft 437 kts 309°
2026-04-28 19:24 10.49692 -81.53849 35896 ft 437 kts 309°
2026-04-28 19:24 10.53898 -81.58303 35901 ft 438 kts 309°
2026-04-28 19:25 10.58098 -81.62754 35904 ft 438 kts 309°
2026-04-28 19:25 10.62328 -81.67239 35904 ft 438 kts 309°
2026-04-28 19:26 10.66544 -81.71710 35905 ft 438 kts 309°
2026-04-28 19:26 10.70729 -81.76150 35903 ft 437 kts 309°
2026-04-28 19:27 10.74945 -81.80625 35904 ft 437 kts 309°
2026-04-28 19:27 10.79153 -81.85095 35903 ft 437 kts 309°
2026-04-28 19:28 10.83347 -81.89553 35901 ft 436 kts 309°
2026-04-28 19:28 10.87532 -81.94004 35895 ft 437 kts 309°
2026-04-28 19:29 10.91040 -81.97734 35892 ft 437 kts 309°
2026-04-28 19:29 10.95956 -82.02963 35891 ft 437 kts 308°
2026-04-28 19:30 11.00151 -82.07427 35891 ft 437 kts 309°
2026-04-28 19:30 11.04350 -82.11899 35896 ft 437 kts 308°
2026-04-28 19:31 11.08551 -82.16374 35891 ft 437 kts 309°
2026-04-28 19:31 11.12736 -82.20835 35891 ft 437 kts 309°
2026-04-28 19:32 11.16930 -82.25307 35892 ft 437 kts 309°
2026-04-28 19:32 11.21125 -82.29780 35890 ft 436 kts 309°
2026-04-28 19:33 11.25327 -82.34263 35892 ft 436 kts 309°
2026-04-28 19:33 11.29524 -82.38744 35891 ft 437 kts 309°
2026-04-28 19:34 11.33716 -82.43220 35890 ft 437 kts 309°
2026-04-28 19:34 11.37894 -82.47686 35890 ft 437 kts 308°
2026-04-28 19:35 11.42093 -82.52175 35889 ft 437 kts 309°
2026-04-28 19:35 11.46264 -82.56638 35890 ft 436 kts 309°
2026-04-28 19:36 11.50468 -82.61137 35891 ft 436 kts 309°
2026-04-28 19:36 11.54643 -82.65609 35895 ft 435 kts 308°
2026-04-28 19:37 11.58121 -82.69335 35899 ft 435 kts 308°
2026-04-28 19:37 11.62871 -82.74622 35897 ft 435 kts 306°
2026-04-28 19:38 11.66856 -82.79261 35900 ft 435 kts 306°
2026-04-28 19:38 11.70852 -82.83918 35900 ft 435 kts 306°
2026-04-28 19:39 11.74846 -82.88570 35901 ft 435 kts 306°
2026-04-28 19:39 11.78817 -82.93197 35906 ft 436 kts 306°
2026-04-28 19:40 11.82810 -82.97852 35909 ft 435 kts 306°
2026-04-28 19:40 11.86801 -83.02508 35909 ft 434 kts 306°
2026-04-28 19:41 11.90751 -83.07117 35911 ft 434 kts 306°
2026-04-28 19:41 11.94738 -83.11774 35907 ft 433 kts 306°
2026-04-28 19:42 11.98690 -83.16392 35908 ft 434 kts 306°
2026-04-28 19:42 12.02012 -83.20274 35908 ft 434 kts 306°
2026-04-28 19:43 12.06624 -83.25668 35906 ft 434 kts 306°
2026-04-28 19:43 12.10604 -83.30326 35899 ft 434 kts 306°
2026-04-28 19:44 12.14578 -83.34977 35899 ft 434 kts 306°
2026-04-28 19:44 12.18533 -83.39609 35899 ft 434 kts 306°
2026-04-28 19:45 12.22519 -83.44278 35898 ft 434 kts 306°
2026-04-28 19:45 12.26457 -83.48895 35895 ft 433 kts 306°
2026-04-28 19:46 12.30426 -83.53550 35894 ft 433 kts 306°
2026-04-28 19:46 12.34380 -83.58190 35894 ft 433 kts 306°
2026-04-28 19:47 12.38349 -83.62850 35893 ft 433 kts 306°
2026-04-28 19:47 12.42299 -83.67490 35889 ft 433 kts 306°
2026-04-28 19:48 12.46238 -83.72122 35890 ft 432 kts 306°
2026-04-28 19:48 12.50175 -83.76753 35889 ft 432 kts 306°
2026-04-28 19:49 12.54136 -83.81413 35891 ft 433 kts 306°
2026-04-28 19:49 12.58080 -83.86057 35895 ft 433 kts 306°
2026-04-28 19:50 12.64000 -83.93029 35899 ft 433 kts 306°
2026-04-28 19:51 12.67940 -83.97675 35899 ft 433 kts 306°
2026-04-28 19:51 12.71886 -84.02327 35898 ft 432 kts 306°
2026-04-28 19:52 12.75838 -84.06991 35898 ft 432 kts 306°
2026-04-28 19:52 12.79768 -84.11631 35897 ft 432 kts 306°
2026-04-28 19:53 12.83684 -84.16258 35898 ft 431 kts 306°
2026-04-28 19:53 12.87635 -84.20926 35898 ft 432 kts 306°
2026-04-28 19:54 12.91552 -84.25556 35899 ft 432 kts 306°
2026-04-28 19:54 12.95490 -84.30217 35899 ft 432 kts 306°
2026-04-28 19:55 12.99406 -84.34852 35900 ft 432 kts 306°
2026-04-28 19:55 13.03352 -84.39525 35901 ft 432 kts 306°
2026-04-28 19:56 13.07278 -84.44177 35903 ft 432 kts 306°
2026-04-28 19:56 13.11203 -84.48832 35900 ft 432 kts 306°
2026-04-28 19:57 13.15122 -84.53481 35902 ft 431 kts 306°
2026-04-28 19:57 13.19047 -84.58140 35904 ft 431 kts 306°
2026-04-28 19:58 13.22954 -84.62778 35907 ft 431 kts 306°
2026-04-28 19:58 13.26864 -84.67423 35912 ft 431 kts 306°
2026-04-28 19:59 13.30776 -84.72073 35916 ft 431 kts 306°
2026-04-28 19:59 13.34713 -84.76756 35916 ft 431 kts 306°
2026-04-28 20:00 13.38622 -84.81408 35912 ft 431 kts 306°
2026-04-28 20:00 13.42525 -84.86056 35916 ft 431 kts 306°
2026-04-28 20:01 13.46453 -84.90735 35917 ft 431 kts 306°
2026-04-28 20:01 13.50364 -84.95398 35919 ft 430 kts 306°
2026-04-28 20:02 13.54266 -85.00052 35934 ft 430 kts 306°
2026-04-28 20:02 13.58169 -85.04710 35952 ft 430 kts 306°
2026-04-28 20:03 13.62057 -85.09351 35970 ft 430 kts 306°
2026-04-28 20:03 13.65973 -85.14028 35989 ft 430 kts 306°
2026-04-28 20:04 13.69866 -85.18681 35995 ft 430 kts 306°
2026-04-28 20:04 13.73776 -85.23358 36005 ft 430 kts 306°
2026-04-28 20:05 13.77657 -85.28002 36003 ft 430 kts 306°
2026-04-28 20:05 13.81553 -85.32667 35998 ft 430 kts 307°
2026-04-28 20:06 13.85453 -85.37340 35990 ft 430 kts 307°
2026-04-28 20:06 13.89359 -85.42022 35982 ft 430 kts 307°
2026-04-28 20:07 13.93242 -85.46677 35977 ft 430 kts 307°
2026-04-28 20:07 13.97126 -85.51338 35968 ft 430 kts 307°
2026-04-28 20:08 14.01030 -85.56024 35968 ft 430 kts 307°
2026-04-28 20:08 14.04916 -85.60696 35983 ft 430 kts 307°
2026-04-28 20:09 14.08821 -85.65389 35996 ft 431 kts 307°
2026-04-28 20:09 14.12702 -85.70056 36009 ft 430 kts 307°
2026-04-28 20:10 14.16605 -85.74752 36022 ft 430 kts 307°
2026-04-28 20:10 14.20506 -85.79450 36032 ft 430 kts 307°
2026-04-28 20:11 14.24389 -85.84129 36047 ft 430 kts 307°
2026-04-28 20:11 14.28284 -85.88824 36056 ft 430 kts 307°
2026-04-28 20:12 14.32153 -85.93491 36053 ft 431 kts 307°
2026-04-28 20:12 14.36056 -85.98202 36047 ft 431 kts 307°
2026-04-28 20:13 14.39935 -86.02887 36037 ft 432 kts 307°
2026-04-28 20:13 14.43835 -86.07598 36021 ft 432 kts 307°
2026-04-28 20:14 14.47724 -86.12299 36008 ft 431 kts 307°
2026-04-28 20:14 14.51636 -86.17031 36002 ft 431 kts 307°
2026-04-28 20:15 14.55520 -86.21734 36016 ft 431 kts 307°
2026-04-28 20:15 14.59401 -86.26435 36035 ft 431 kts 307°
2026-04-28 20:16 14.63300 -86.31161 36050 ft 431 kts 308°
2026-04-28 20:16 14.67192 -86.35881 36057 ft 432 kts 307°
2026-04-28 20:17 14.71077 -86.40594 36062 ft 431 kts 308°
2026-04-28 20:17 14.74950 -86.45295 36061 ft 432 kts 308°
2026-04-28 20:18 14.78849 -86.50033 36072 ft 431 kts 308°
2026-04-28 20:18 14.82736 -86.54756 36081 ft 431 kts 308°
2026-04-28 20:19 14.86593 -86.59448 36099 ft 431 kts 308°
2026-04-28 20:19 14.90493 -86.64197 36106 ft 431 kts 308°
2026-04-28 20:20 14.94368 -86.68916 36115 ft 431 kts 308°
2026-04-28 20:20 14.98220 -86.73610 36109 ft 431 kts 308°
2026-04-28 20:21 15.02115 -86.78360 36117 ft 430 kts 308°
2026-04-28 20:21 15.05967 -86.83058 36127 ft 430 kts 308°
2026-04-28 20:22 15.09815 -86.87757 36130 ft 429 kts 308°
2026-04-28 20:22 15.13688 -86.92490 36135 ft 429 kts 308°
2026-04-28 20:23 15.17540 -86.97201 36142 ft 429 kts 308°
2026-04-28 20:23 15.21357 -87.01973 36139 ft 429 kts 307°
2026-04-28 20:24 15.25101 -87.06752 36116 ft 429 kts 307°
2026-04-28 20:24 15.28861 -87.11549 36098 ft 430 kts 307°
2026-04-28 20:25 15.32638 -87.16363 36088 ft 429 kts 307°
2026-04-28 20:25 15.36392 -87.21153 36085 ft 429 kts 307°
2026-04-28 20:26 15.40128 -87.25921 36088 ft 428 kts 307°
2026-04-28 20:26 15.43896 -87.30731 36092 ft 429 kts 307°
2026-04-28 20:27 15.47636 -87.35509 36080 ft 429 kts 308°
2026-04-28 20:27 15.51401 -87.40322 36057 ft 428 kts 308°
2026-04-28 20:28 15.55137 -87.45104 36014 ft 428 kts 308°
2026-04-28 20:28 15.58896 -87.49914 35981 ft 428 kts 308°
2026-04-28 20:29 15.62642 -87.54711 35964 ft 428 kts 308°
2026-04-28 20:29 15.66382 -87.59506 35948 ft 427 kts 308°
2026-04-28 20:30 15.70111 -87.64288 35934 ft 427 kts 308°
2026-04-28 20:30 15.73836 -87.69066 35928 ft 426 kts 308°
2026-04-28 20:31 15.77570 -87.73862 35921 ft 427 kts 308°
2026-04-28 20:31 15.81305 -87.78663 35921 ft 427 kts 308°
2026-04-28 20:32 15.85019 -87.83437 35921 ft 427 kts 308°
2026-04-28 20:32 15.88751 -87.88238 35926 ft 427 kts 308°
2026-04-28 20:33 15.92487 -87.93047 35922 ft 428 kts 308°
2026-04-28 20:33 15.96225 -87.97866 35921 ft 428 kts 309°
2026-04-28 20:34 15.99943 -88.02660 35914 ft 428 kts 309°
2026-04-28 20:34 16.03670 -88.07465 35912 ft 427 kts 309°
2026-04-28 20:35 16.07410 -88.12295 35912 ft 427 kts 309°
2026-04-28 20:35 16.11118 -88.17085 35915 ft 427 kts 309°
2026-04-28 20:36 16.14846 -88.21904 35913 ft 427 kts 309°
2026-04-28 20:36 16.18567 -88.26716 35911 ft 426 kts 309°
2026-04-28 20:37 16.22278 -88.31518 35909 ft 427 kts 309°
2026-04-28 20:37 16.26006 -88.36347 35908 ft 427 kts 309°
2026-04-28 20:38 16.29714 -88.41152 35906 ft 427 kts 310°
2026-04-28 20:38 16.33417 -88.45956 35905 ft 426 kts 310°
2026-04-28 20:39 16.37119 -88.50758 35907 ft 426 kts 310°
2026-04-28 20:39 16.40814 -88.55559 35907 ft 425 kts 310°
2026-04-28 20:40 16.44523 -88.60377 35907 ft 426 kts 310°
2026-04-28 20:40 16.48227 -88.65196 35910 ft 425 kts 310°
2026-04-28 20:41 16.51905 -88.69981 35913 ft 425 kts 310°
2026-04-28 20:41 16.55589 -88.74778 35920 ft 425 kts 310°
2026-04-28 20:42 16.59296 -88.79608 35940 ft 425 kts 310°
2026-04-28 20:42 16.62985 -88.84419 35965 ft 425 kts 310°
2026-04-28 20:43 16.66662 -88.89220 35986 ft 424 kts 311°
2026-04-28 20:43 16.70346 -88.94029 35995 ft 424 kts 311°
2026-04-28 20:44 16.74020 -88.98829 36002 ft 425 kts 311°
2026-04-28 20:44 16.77695 -89.03633 35999 ft 424 kts 311°
2026-04-28 20:45 16.81370 -89.08443 35991 ft 425 kts 311°
2026-04-28 20:45 16.85068 -89.13284 35975 ft 424 kts 311°
2026-04-28 20:46 16.88732 -89.18086 35952 ft 423 kts 311°
2026-04-28 20:46 16.92384 -89.22874 35937 ft 423 kts 311°
2026-04-28 20:47 16.96043 -89.27674 35917 ft 422 kts 311°
2026-04-28 20:47 16.99694 -89.32468 35910 ft 423 kts 311°
2026-04-28 20:48 17.03363 -89.37288 35901 ft 423 kts 312°
2026-04-28 20:48 17.07007 -89.42081 35899 ft 423 kts 311°
2026-04-28 20:49 17.10652 -89.46877 35901 ft 422 kts 312°
2026-04-28 20:49 17.14322 -89.51710 35894 ft 421 kts 312°
2026-04-28 20:50 17.17954 -89.56495 35899 ft 422 kts 312°
2026-04-28 20:50 17.21608 -89.61313 35892 ft 422 kts 312°
2026-04-28 20:51 17.25246 -89.66112 35891 ft 423 kts 312°
2026-04-28 20:51 17.28890 -89.70924 35892 ft 422 kts 312°
2026-04-28 20:52 17.32548 -89.75754 35890 ft 422 kts 312°
2026-04-28 20:52 17.36175 -89.80555 35887 ft 422 kts 312°
2026-04-28 20:53 17.41642 -89.87787 35894 ft 421 kts 313°
2026-04-28 20:53 17.45265 -89.92589 35896 ft 422 kts 312°
2026-04-28 20:54 17.48919 -89.97433 35896 ft 422 kts 313°
2026-04-28 20:54 17.52547 -90.02241 35897 ft 422 kts 312°
2026-04-28 20:55 17.56182 -90.07069 35889 ft 422 kts 313°
2026-04-28 20:55 17.59808 -90.11889 35879 ft 423 kts 313°
2026-04-28 20:56 17.63444 -90.16719 35870 ft 422 kts 313°
2026-04-28 20:56 17.67065 -90.21540 35863 ft 423 kts 313°
2026-04-28 20:57 17.70698 -90.26379 35864 ft 423 kts 313°
2026-04-28 20:57 17.74327 -90.31212 35865 ft 423 kts 313°
2026-04-28 20:58 17.77987 -90.36093 35860 ft 424 kts 313°
2026-04-28 20:58 17.81614 -90.40935 35864 ft 423 kts 313°
2026-04-28 20:59 17.85210 -90.45808 35856 ft 422 kts 313°
2026-04-28 20:59 17.88782 -90.50676 35850 ft 422 kts 312°
2026-04-28 21:00 17.92374 -90.55577 35849 ft 422 kts 312°
2026-04-28 21:00 17.95958 -90.60471 35840 ft 424 kts 313°
2026-04-28 21:01 17.99551 -90.65372 35836 ft 425 kts 313°
2026-04-28 21:01 18.03171 -90.70318 35832 ft 426 kts 313°
2026-04-28 21:02 18.06775 -90.75246 35830 ft 425 kts 313°
2026-04-28 21:02 18.10364 -90.80153 35829 ft 426 kts 312°
2026-04-28 21:03 18.13981 -90.85107 35829 ft 426 kts 312°
2026-04-28 21:03 18.17558 -90.90010 35823 ft 425 kts 312°
2026-04-28 21:04 18.21150 -90.94940 35826 ft 425 kts 312°
2026-04-28 21:04 18.24749 -90.99873 35827 ft 425 kts 313°
2026-04-28 21:05 18.28343 -91.04812 35824 ft 424 kts 312°
2026-04-28 21:05 18.31914 -91.09721 35824 ft 425 kts 312°
2026-04-28 21:06 18.35504 -91.14658 35820 ft 425 kts 313°
2026-04-28 21:06 18.39082 -91.19583 35818 ft 424 kts 313°
2026-04-28 21:07 18.42646 -91.24494 35812 ft 424 kts 312°
2026-04-28 21:07 18.46222 -91.29421 35807 ft 424 kts 313°
2026-04-28 21:08 18.49794 -91.34355 35803 ft 424 kts 313°
2026-04-28 21:08 18.53373 -91.39291 35805 ft 424 kts 313°
2026-04-28 21:09 18.56952 -91.44241 35812 ft 423 kts 313°
2026-04-28 21:09 18.60518 -91.49170 35821 ft 424 kts 313°
2026-04-28 21:10 18.64081 -91.54101 35826 ft 422 kts 313°
2026-04-28 21:10 18.67641 -91.59029 35830 ft 422 kts 313°
2026-04-28 21:11 18.71192 -91.63952 35845 ft 422 kts 313°
2026-04-28 21:11 18.74733 -91.68864 35844 ft 422 kts 312°
2026-04-28 21:12 18.78291 -91.73800 35844 ft 423 kts 312°
2026-04-28 21:12 18.81848 -91.78744 35852 ft 423 kts 312°
2026-04-28 21:13 18.85376 -91.83650 35844 ft 421 kts 312°
2026-04-28 21:13 18.88933 -91.88599 35847 ft 421 kts 312°
2026-04-28 21:14 18.92461 -91.93513 35841 ft 421 kts 312°
2026-04-28 21:14 18.95998 -91.98444 35829 ft 420 kts 312°
2026-04-28 21:15 18.99530 -92.03369 35829 ft 422 kts 312°
2026-04-28 21:15 19.03077 -92.08320 35831 ft 423 kts 312°
2026-04-28 21:16 19.06619 -92.13270 35830 ft 422 kts 312°
2026-04-28 21:16 19.10148 -92.18204 35835 ft 421 kts 312°
2026-04-28 21:17 19.13679 -92.23144 35837 ft 421 kts 312°
2026-04-28 21:17 19.17176 -92.28038 35836 ft 420 kts 312°
2026-04-28 21:18 19.20696 -92.32976 35840 ft 419 kts 312°
2026-04-28 21:18 19.24221 -92.37920 35838 ft 420 kts 312°
2026-04-28 21:19 19.27726 -92.42841 35839 ft 420 kts 312°
2026-04-28 21:19 19.31253 -92.47795 35841 ft 419 kts 312°
2026-04-28 21:20 19.34755 -92.52721 35845 ft 419 kts 312°
2026-04-28 21:20 19.38241 -92.57623 35845 ft 419 kts 312°
2026-04-28 21:21 19.41727 -92.62534 35847 ft 419 kts 311°
2026-04-28 21:21 19.45228 -92.67464 35851 ft 419 kts 311°
2026-04-28 21:22 19.48737 -92.72414 35850 ft 419 kts 311°
2026-04-28 21:22 19.51645 -92.76520 35849 ft 419 kts 311°
2026-04-28 21:23 19.55727 -92.82286 35860 ft 419 kts 311°
2026-04-28 21:23 19.59199 -92.87202 35865 ft 416 kts 311°
2026-04-28 21:24 19.62685 -92.92131 35866 ft 417 kts 311°
2026-04-28 21:24 19.66163 -92.97054 35872 ft 417 kts 311°
2026-04-28 21:25 19.69640 -93.01982 35877 ft 417 kts 311°
2026-04-28 21:25 19.73084 -93.06873 35876 ft 417 kts 311°
2026-04-28 21:26 19.76559 -93.11803 35878 ft 418 kts 311°
2026-04-28 21:26 19.80047 -93.16758 35879 ft 417 kts 311°
2026-04-28 21:27 19.83504 -93.21680 35880 ft 417 kts 311°
2026-04-28 21:27 19.86958 -93.26595 35880 ft 418 kts 311°
2026-04-28 21:28 19.90432 -93.31543 35880 ft 417 kts 311°
2026-04-28 21:28 19.93879 -93.36460 35881 ft 416 kts 311°
2026-04-28 21:29 19.97359 -93.41425 35881 ft 418 kts 311°
2026-04-28 21:29 20.00828 -93.46377 35889 ft 419 kts 311°
2026-04-28 21:30 20.04299 -93.51337 35892 ft 419 kts 311°
2026-04-28 21:30 20.07750 -93.56279 35891 ft 418 kts 311°
2026-04-28 21:31 20.11232 -93.61262 35897 ft 417 kts 311°
2026-04-28 21:31 20.14679 -93.66202 35892 ft 417 kts 310°
2026-04-28 21:32 20.18126 -93.71146 35894 ft 417 kts 310°
2026-04-28 21:32 20.21574 -93.76096 35892 ft 417 kts 310°
2026-04-28 21:33 20.25035 -93.81067 35892 ft 418 kts 310°
2026-04-28 21:33 20.28500 -93.86047 35894 ft 417 kts 310°
2026-04-28 21:34 20.31931 -93.90987 35892 ft 417 kts 310°
2026-04-28 21:34 20.35386 -93.95960 35889 ft 417 kts 310°
2026-04-28 21:35 20.38818 -94.00908 35889 ft 417 kts 310°
2026-04-28 21:35 20.42258 -94.05872 35886 ft 416 kts 310°
2026-04-28 21:36 20.45691 -94.10828 35889 ft 415 kts 310°
2026-04-28 21:36 20.49111 -94.15771 35889 ft 415 kts 310°
2026-04-28 21:37 20.52539 -94.20732 35891 ft 415 kts 310°
2026-04-28 21:37 20.55949 -94.25669 35889 ft 414 kts 310°
2026-04-28 21:38 20.59381 -94.30639 35889 ft 414 kts 310°
2026-04-28 21:38 20.62788 -94.35577 35888 ft 414 kts 310°
2026-04-28 21:39 20.66190 -94.40518 35883 ft 413 kts 310°
2026-04-28 21:39 20.69583 -94.45444 35881 ft 413 kts 310°
2026-04-28 21:40 20.72972 -94.50372 35879 ft 412 kts 310°
2026-04-28 21:40 20.76374 -94.55320 35878 ft 411 kts 310°
2026-04-28 21:41 20.79733 -94.60214 35878 ft 411 kts 310°
2026-04-28 21:41 20.83124 -94.65160 35876 ft 410 kts 310°
2026-04-28 21:42 20.86496 -94.70076 35875 ft 410 kts 310°
2026-04-28 21:42 20.89842 -94.74963 35878 ft 409 kts 310°
2026-04-28 21:43 20.93208 -94.79878 35887 ft 409 kts 309°
2026-04-28 21:43 20.96557 -94.84780 35892 ft 407 kts 310°
2026-04-28 21:44 20.99893 -94.89665 35892 ft 406 kts 310°
2026-04-28 21:44 21.03229 -94.94550 35891 ft 407 kts 309°
2026-04-28 21:45 21.06565 -94.99444 35892 ft 408 kts 309°
2026-04-28 21:45 21.09966 -95.04269 35888 ft 405 kts 311°
2026-04-28 21:46 21.13393 -95.09054 35890 ft 405 kts 311°
2026-04-28 21:46 21.16795 -95.13811 35888 ft 404 kts 310°
2026-04-28 21:47 21.20190 -95.18572 35887 ft 404 kts 311°
2026-04-28 21:47 21.23608 -95.23372 35886 ft 403 kts 310°
2026-04-28 21:48 21.26994 -95.28133 35887 ft 403 kts 310°
2026-04-28 21:48 21.30386 -95.32910 35882 ft 402 kts 311°
2026-04-28 21:49 21.33751 -95.37646 35880 ft 402 kts 310°
2026-04-28 21:49 21.37141 -95.42426 35880 ft 401 kts 310°
2026-04-28 21:50 21.40511 -95.47181 35880 ft 401 kts 310°
2026-04-28 21:50 21.43899 -95.51963 35876 ft 402 kts 310°
2026-04-28 21:51 21.47265 -95.56724 35878 ft 401 kts 310°
2026-04-28 21:51 21.50624 -95.61475 35878 ft 401 kts 310°
2026-04-28 21:52 21.53976 -95.66222 35882 ft 400 kts 310°
2026-04-28 21:52 21.57338 -95.70984 35883 ft 399 kts 310°
2026-04-28 21:53 21.60685 -95.75731 35880 ft 400 kts 310°
2026-04-28 21:53 21.64055 -95.80515 35881 ft 400 kts 310°
2026-04-28 21:54 21.67388 -95.85250 35878 ft 399 kts 310°
2026-04-28 21:54 21.70730 -95.90002 35873 ft 398 kts 310°
2026-04-28 21:55 21.74078 -95.94769 35869 ft 398 kts 310°
2026-04-28 21:55 21.77394 -95.99492 35867 ft 397 kts 310°
2026-04-28 21:56 21.80728 -96.04243 35869 ft 397 kts 310°
2026-04-28 21:56 21.84054 -96.08990 35868 ft 397 kts 310°
2026-04-28 21:57 21.87370 -96.13728 35867 ft 396 kts 309°
2026-04-28 21:57 21.90666 -96.18439 35866 ft 396 kts 309°
2026-04-28 21:58 21.93974 -96.23171 35865 ft 395 kts 309°
2026-04-28 21:58 21.97273 -96.27895 35864 ft 396 kts 309°
2026-04-28 21:59 22.00584 -96.32639 35867 ft 395 kts 309°
2026-04-28 22:00 22.05498 -96.39691 35868 ft 394 kts 309°
2026-04-28 22:00 22.08797 -96.44428 35865 ft 394 kts 309°
2026-04-28 22:01 22.12070 -96.49135 35865 ft 393 kts 309°
2026-04-28 22:01 22.15332 -96.53831 35867 ft 393 kts 309°
2026-04-28 22:02 22.18507 -96.58632 35865 ft 393 kts 308°
2026-04-28 22:02 22.21654 -96.63456 35863 ft 394 kts 308°
2026-04-28 22:03 22.24809 -96.68289 35866 ft 393 kts 307°
2026-04-28 22:03 22.27948 -96.73096 35861 ft 393 kts 307°
2026-04-28 22:04 22.31086 -96.77899 35866 ft 393 kts 307°
2026-04-28 22:04 22.34239 -96.82729 35862 ft 393 kts 307°
2026-04-28 22:05 22.37370 -96.87528 35859 ft 392 kts 307°
2026-04-28 22:05 22.40513 -96.92351 35865 ft 392 kts 307°
2026-04-28 22:06 22.43626 -96.97133 35861 ft 391 kts 307°
2026-04-28 22:06 22.46753 -97.01939 35861 ft 391 kts 307°
2026-04-28 22:07 22.49873 -97.06743 35863 ft 390 kts 307°
2026-04-28 22:07 22.52995 -97.11552 35872 ft 390 kts 307°
2026-04-28 22:08 22.56111 -97.16354 35865 ft 391 kts 307°
2026-04-28 22:08 22.59229 -97.21162 35862 ft 390 kts 307°
2026-04-28 22:09 22.62339 -97.25967 35858 ft 390 kts 307°
2026-04-28 22:09 22.65443 -97.30765 35856 ft 390 kts 307°
2026-04-28 22:10 22.68540 -97.35552 35856 ft 389 kts 307°
2026-04-28 22:10 22.71628 -97.40334 35856 ft 389 kts 307°
2026-04-28 22:11 22.74725 -97.45138 35857 ft 389 kts 307°
2026-04-28 22:11 22.77824 -97.49944 35852 ft 388 kts 307°
2026-04-28 22:12 22.80895 -97.54714 35853 ft 388 kts 307°
2026-04-28 22:12 22.83998 -97.59531 35853 ft 389 kts 306°
2026-04-28 22:13 22.87075 -97.64325 35851 ft 388 kts 307°
2026-04-28 22:13 22.90170 -97.69141 35849 ft 389 kts 306°
2026-04-28 22:14 22.93246 -97.73937 35854 ft 388 kts 306°
2026-04-28 22:14 22.96310 -97.78716 35855 ft 387 kts 306°
2026-04-28 22:15 22.99402 -97.83540 35871 ft 388 kts 306°
2026-04-28 22:15 23.02475 -97.88345 35883 ft 387 kts 306°
2026-04-28 22:16 23.05538 -97.93135 35891 ft 387 kts 306°
2026-04-28 22:16 23.08581 -97.97902 35897 ft 386 kts 306°
2026-04-28 22:17 23.11658 -98.02721 35901 ft 386 kts 306°
2026-04-28 22:17 23.14690 -98.07481 35895 ft 386 kts 306°
2026-04-28 22:18 23.17751 -98.12280 35899 ft 385 kts 306°
2026-04-28 22:18 23.20800 -98.17074 35904 ft 387 kts 306°
2026-04-28 22:19 23.23864 -98.21898 35918 ft 388 kts 305°
2026-04-28 22:19 23.26914 -98.26699 35929 ft 387 kts 306°
2026-04-28 22:20 23.29974 -98.31522 35933 ft 388 kts 306°
2026-04-28 22:20 23.33019 -98.36327 35942 ft 387 kts 306°
2026-04-28 22:21 23.36083 -98.41161 35941 ft 388 kts 305°
2026-04-28 22:21 23.39138 -98.45988 35946 ft 387 kts 306°
2026-04-28 22:22 23.42184 -98.50809 35946 ft 387 kts 305°
2026-04-28 22:22 23.45218 -98.55613 35930 ft 385 kts 305°
2026-04-28 22:23 23.48249 -98.60416 35913 ft 384 kts 305°
2026-04-28 22:23 23.51253 -98.65180 35888 ft 384 kts 305°
2026-04-28 22:24 23.54290 -98.70009 35862 ft 384 kts 305°
2026-04-28 22:24 23.57301 -98.74788 35844 ft 385 kts 305°
2026-04-28 22:25 23.60329 -98.79607 35814 ft 388 kts 305°
2026-04-28 22:25 23.63406 -98.84501 35977 ft 392 kts 304°
2026-04-28 22:25 23.64936 -98.86942 36170 ft 392 kts 305°
2026-04-28 22:26 23.66469 -98.89390 36403 ft 390 kts 304°
2026-04-28 22:26 23.67984 -98.91804 36591 ft 390 kts 304°
2026-04-28 22:26 23.69512 -98.94243 36766 ft 389 kts 305°
2026-04-28 22:26 23.71047 -98.96682 36951 ft 388 kts 305°
2026-04-28 22:27 23.72600 -98.99056 37125 ft 387 kts 306°
2026-04-28 22:27 23.74170 -99.01428 37319 ft 385 kts 306°
2026-04-28 22:27 23.75733 -99.03797 37501 ft 384 kts 306°
2026-04-28 22:27 23.77285 -99.06149 37631 ft 383 kts 306°
2026-04-28 22:28 23.78836 -99.08501 37780 ft 382 kts 305°
2026-04-28 22:28 23.81944 -99.13230 37864 ft 381 kts 306°
2026-04-28 22:29 23.85024 -99.17920 37897 ft 381 kts 305°
2026-04-28 22:29 23.88099 -99.22604 37917 ft 381 kts 305°
2026-04-28 22:30 23.91180 -99.27314 37945 ft 380 kts 305°
2026-04-28 22:30 23.94244 -99.31997 37986 ft 381 kts 305°
2026-04-28 22:31 23.97339 -99.36734 38005 ft 381 kts 305°
2026-04-28 22:31 24.00414 -99.41435 38084 ft 381 kts 305°
2026-04-28 22:32 24.03480 -99.46139 38145 ft 380 kts 305°
2026-04-28 22:32 24.06543 -99.50835 38181 ft 380 kts 304°
2026-04-28 22:33 24.09611 -99.55551 38172 ft 381 kts 305°
2026-04-28 22:33 24.12678 -99.60260 38188 ft 380 kts 304°
2026-04-28 22:34 24.15733 -99.64963 38164 ft 382 kts 305°
2026-04-28 22:34 24.18802 -99.69695 38183 ft 381 kts 304°
2026-04-28 22:35 24.21866 -99.74419 38218 ft 380 kts 304°
2026-04-28 22:35 24.24914 -99.79121 38235 ft 380 kts 304°
2026-04-28 22:36 24.27981 -99.83852 38236 ft 380 kts 304°
2026-04-28 22:36 24.31025 -99.88562 38286 ft 380 kts 304°
2026-04-28 22:37 24.34081 -99.93290 38333 ft 379 kts 304°
2026-04-28 22:37 24.37109 -99.97980 38366 ft 379 kts 304°
2026-04-28 22:38 24.40160 -100.02710 38404 ft 380 kts 304°
2026-04-28 22:38 24.43214 -100.07446 38398 ft 380 kts 304°
2026-04-28 22:39 24.46251 -100.12167 38387 ft 379 kts 304°
2026-04-28 22:39 24.49282 -100.16873 38376 ft 379 kts 304°
2026-04-28 22:40 24.52327 -100.21616 38362 ft 381 kts 304°
2026-04-28 22:40 24.55359 -100.26337 38351 ft 381 kts 304°
2026-04-28 22:41 24.58427 -100.31124 38346 ft 382 kts 304°
2026-04-28 22:41 24.61461 -100.35858 38352 ft 381 kts 304°
2026-04-28 22:42 24.64516 -100.40631 38347 ft 382 kts 303°
2026-04-28 22:42 24.67568 -100.45406 38360 ft 382 kts 303°
2026-04-28 22:43 24.70618 -100.50178 38367 ft 383 kts 303°
2026-04-28 22:43 24.73659 -100.54946 38378 ft 382 kts 303°
2026-04-28 22:44 24.76715 -100.59743 38400 ft 382 kts 303°
2026-04-28 22:44 24.79746 -100.64501 38415 ft 383 kts 303°
2026-04-28 22:45 24.82800 -100.69299 38428 ft 383 kts 303°
2026-04-28 22:45 24.85849 -100.74095 38432 ft 384 kts 302°
2026-04-28 22:46 24.88922 -100.78937 38430 ft 384 kts 303°
2026-04-28 22:46 24.91960 -100.83727 38420 ft 384 kts 303°
2026-04-28 22:47 24.95016 -100.88548 38407 ft 384 kts 302°
2026-04-28 22:47 24.98066 -100.93368 38405 ft 383 kts 303°
2026-04-28 22:48 25.01115 -100.98185 38412 ft 385 kts 303°
2026-04-28 22:48 25.04168 -101.03019 38433 ft 385 kts 303°
2026-04-28 22:49 25.07237 -101.07882 38423 ft 385 kts 303°
2026-04-28 22:49 25.10287 -101.12719 38408 ft 386 kts 302°
2026-04-28 22:50 25.13350 -101.17583 38406 ft 386 kts 303°
2026-04-28 22:50 25.16406 -101.22438 38398 ft 387 kts 302°
2026-04-28 22:51 25.19454 -101.27291 38374 ft 386 kts 302°
2026-04-28 22:51 25.22514 -101.32161 38361 ft 386 kts 302°
2026-04-28 22:52 25.25554 -101.37007 38355 ft 386 kts 302°
2026-04-28 22:52 25.28599 -101.41867 38353 ft 385 kts 302°
2026-04-28 22:53 25.31651 -101.46743 38339 ft 384 kts 302°
2026-04-28 22:53 25.34672 -101.51574 38319 ft 384 kts 302°
2026-04-28 22:54 25.37712 -101.56439 38304 ft 384 kts 302°
2026-04-28 22:54 25.40733 -101.61279 38283 ft 384 kts 302°
2026-04-28 22:55 25.43779 -101.66164 38263 ft 385 kts 301°
2026-04-28 22:55 25.46796 -101.71013 38256 ft 385 kts 302°
2026-04-28 22:56 25.49819 -101.75870 38239 ft 384 kts 301°
2026-04-28 22:56 25.52846 -101.80737 38231 ft 385 kts 301°
2026-04-28 22:57 25.55871 -101.85614 38225 ft 384 kts 302°
2026-04-28 22:57 25.58898 -101.90491 38225 ft 385 kts 301°
2026-04-28 22:58 25.61927 -101.95378 38216 ft 386 kts 301°
2026-04-28 22:58 25.64957 -102.00278 38206 ft 385 kts 302°
2026-04-28 22:59 25.67974 -102.05154 38193 ft 386 kts 301°
2026-04-28 22:59 25.71011 -102.10071 38179 ft 386 kts 301°
2026-04-28 23:00 25.74034 -102.14972 38164 ft 386 kts 301°
2026-04-28 23:00 25.77058 -102.19877 38157 ft 386 kts 301°
2026-04-28 23:01 25.80079 -102.24786 38151 ft 385 kts 301°
2026-04-28 23:01 25.83104 -102.29700 38145 ft 386 kts 301°
2026-04-28 23:02 25.86117 -102.34605 38145 ft 385 kts 301°
2026-04-28 23:02 25.89130 -102.39516 38147 ft 386 kts 301°
2026-04-28 23:03 25.92150 -102.44444 38145 ft 386 kts 301°
2026-04-28 23:03 25.95162 -102.49358 38143 ft 386 kts 301°
2026-04-28 23:04 25.98160 -102.54262 38142 ft 386 kts 301°
2026-04-28 23:04 26.02698 -102.61690 38131 ft 387 kts 301°
2026-04-28 23:05 26.05703 -102.66612 38120 ft 386 kts 300°
2026-04-28 23:05 26.08710 -102.71545 38105 ft 387 kts 301°
2026-04-28 23:06 26.11717 -102.76485 38086 ft 387 kts 300°
2026-04-28 23:06 26.14745 -102.81466 38091 ft 387 kts 300°
2026-04-28 23:07 26.17746 -102.86405 38111 ft 386 kts 300°
2026-04-28 23:07 26.20747 -102.91349 38141 ft 387 kts 300°
2026-04-28 23:08 26.23768 -102.96326 38175 ft 387 kts 300°
2026-04-28 23:08 26.26768 -103.01283 38213 ft 388 kts 300°
2026-04-28 23:09 26.29779 -103.06261 38216 ft 387 kts 300°
2026-04-28 23:09 26.32781 -103.11229 38207 ft 387 kts 300°
2026-04-28 23:10 26.35772 -103.16188 38198 ft 387 kts 300°
2026-04-28 23:10 26.38773 -103.21163 38187 ft 387 kts 300°
2026-04-28 23:11 26.41759 -103.26116 38179 ft 387 kts 300°
2026-04-28 23:11 26.44751 -103.31095 38173 ft 387 kts 300°
2026-04-28 23:12 26.47760 -103.36096 38159 ft 387 kts 300°
2026-04-28 23:12 26.50732 -103.41052 38148 ft 387 kts 300°
2026-04-28 23:13 26.53723 -103.46036 38137 ft 386 kts 300°
2026-04-28 23:13 26.56706 -103.51019 38125 ft 386 kts 300°
2026-04-28 23:14 26.59687 -103.55996 38118 ft 386 kts 300°
2026-04-28 23:14 26.62659 -103.60975 38116 ft 386 kts 300°
2026-04-28 23:15 26.65635 -103.65955 38120 ft 386 kts 299°
2026-04-28 23:15 26.68605 -103.70934 38122 ft 386 kts 299°
2026-04-28 23:16 26.71578 -103.75932 38122 ft 386 kts 299°
2026-04-28 23:16 26.74536 -103.80902 38120 ft 385 kts 299°
2026-04-28 23:17 26.77492 -103.85877 38120 ft 385 kts 299°
2026-04-28 23:17 26.80460 -103.90874 38119 ft 385 kts 299°
2026-04-28 23:18 26.83411 -103.95845 38118 ft 385 kts 299°
2026-04-28 23:18 26.86377 -104.00852 38119 ft 385 kts 299°
2026-04-28 23:19 26.89323 -104.05834 38125 ft 385 kts 299°
2026-04-28 23:19 26.92279 -104.10834 38142 ft 384 kts 299°
2026-04-28 23:20 26.95225 -104.15823 38151 ft 385 kts 299°
2026-04-28 23:20 26.98162 -104.20805 38170 ft 384 kts 299°
2026-04-28 23:21 27.01106 -104.25801 38188 ft 384 kts 299°
2026-04-28 23:21 27.04044 -104.30794 38199 ft 384 kts 299°
2026-04-28 23:22 27.06986 -104.35799 38194 ft 384 kts 298°
2026-04-28 23:22 27.09913 -104.40782 38208 ft 384 kts 298°
2026-04-28 23:23 27.12842 -104.45780 38198 ft 384 kts 298°
2026-04-28 23:23 27.15776 -104.50787 38200 ft 384 kts 298°
2026-04-28 23:24 27.18698 -104.55778 38196 ft 384 kts 298°
2026-04-28 23:24 27.21616 -104.60772 38195 ft 383 kts 298°
2026-04-28 23:25 27.24540 -104.65781 38192 ft 383 kts 298°
2026-04-28 23:25 27.27456 -104.70783 38189 ft 383 kts 297°
2026-04-28 23:26 27.30374 -104.75794 38190 ft 383 kts 298°
2026-04-28 23:26 27.33274 -104.80778 38188 ft 383 kts 297°
2026-04-28 23:27 27.36173 -104.85764 38185 ft 382 kts 297°
2026-04-28 23:27 27.39093 -104.90796 38180 ft 383 kts 297°
2026-04-28 23:28 27.41993 -104.95796 38184 ft 382 kts 297°
2026-04-28 23:28 27.44878 -105.00774 38175 ft 382 kts 297°
2026-04-28 23:29 27.47779 -105.05792 38180 ft 382 kts 297°
2026-04-28 23:29 27.50659 -105.10777 38185 ft 381 kts 297°
2026-04-28 23:30 27.53555 -105.15793 38194 ft 381 kts 297°
2026-04-28 23:30 27.56430 -105.20775 38191 ft 381 kts 297°
2026-04-28 23:31 27.59321 -105.25797 38196 ft 381 kts 297°
2026-04-28 23:31 27.62188 -105.30781 38196 ft 380 kts 297°
2026-04-28 23:32 27.65061 -105.35786 38203 ft 380 kts 297°
2026-04-28 23:32 27.67921 -105.40765 38204 ft 380 kts 297°
2026-04-28 23:33 27.70780 -105.45760 38200 ft 380 kts 297°
2026-04-28 23:33 27.73647 -105.50762 38199 ft 380 kts 297°
2026-04-28 23:34 27.76513 -105.55769 38206 ft 379 kts 297°
2026-04-28 23:34 27.79357 -105.60754 38203 ft 379 kts 297°
2026-04-28 23:35 27.82206 -105.65749 38197 ft 379 kts 296°
2026-04-28 23:35 27.85052 -105.70739 38195 ft 379 kts 297°
2026-04-28 23:36 27.87906 -105.75748 38201 ft 378 kts 296°
2026-04-28 23:36 27.90756 -105.80755 38200 ft 378 kts 296°
2026-04-28 23:37 27.93570 -105.85719 38211 ft 378 kts 296°
2026-04-28 23:37 27.96402 -105.90707 38212 ft 378 kts 296°
2026-04-28 23:38 27.99244 -105.95724 38222 ft 377 kts 296°
2026-04-28 23:38 28.02064 -106.00705 38225 ft 377 kts 296°
2026-04-28 23:39 28.04889 -106.05701 38234 ft 377 kts 296°
2026-04-28 23:39 28.07706 -106.10693 38240 ft 377 kts 295°
2026-04-28 23:40 28.10518 -106.15680 38245 ft 377 kts 296°
2026-04-28 23:40 28.13341 -106.20687 38252 ft 376 kts 296°
2026-04-28 23:41 28.16149 -106.25682 38249 ft 377 kts 296°
2026-04-28 23:41 28.18950 -106.30664 38265 ft 377 kts 296°
2026-04-28 23:42 28.21755 -106.35660 38270 ft 376 kts 296°
2026-04-28 23:42 28.24554 -106.40655 38283 ft 376 kts 296°
2026-04-28 23:43 28.27349 -106.45642 38301 ft 376 kts 295°
2026-04-28 23:43 28.30142 -106.50637 38316 ft 375 kts 295°
2026-04-28 23:44 28.32931 -106.55624 38331 ft 375 kts 295°
2026-04-28 23:44 28.35706 -106.60605 38342 ft 376 kts 295°
2026-04-28 23:45 28.38498 -106.65610 38352 ft 375 kts 295°
2026-04-28 23:45 28.41292 -106.70624 38364 ft 375 kts 295°
2026-04-28 23:46 28.44068 -106.75619 38376 ft 375 kts 295°
2026-04-28 23:46 28.46844 -106.80612 38380 ft 374 kts 295°
2026-04-28 23:47 28.49609 -106.85595 38397 ft 374 kts 294°
2026-04-28 23:47 28.52386 -106.90609 38422 ft 374 kts 294°
2026-04-28 23:48 28.55156 -106.95615 38428 ft 374 kts 295°
2026-04-28 23:48 28.57917 -107.00605 38431 ft 374 kts 295°
2026-04-28 23:49 28.60686 -107.05621 38430 ft 374 kts 294°
2026-04-28 23:49 28.63440 -107.10614 38431 ft 374 kts 294°
2026-04-28 23:50 28.66202 -107.15630 38421 ft 374 kts 294°
2026-04-28 23:50 28.68949 -107.20621 38420 ft 373 kts 294°
2026-04-28 23:51 28.71699 -107.25629 38417 ft 373 kts 294°
2026-04-28 23:51 28.74437 -107.30621 38417 ft 373 kts 294°
2026-04-28 23:52 28.77187 -107.35628 38420 ft 373 kts 294°
2026-04-28 23:52 28.79914 -107.40608 38420 ft 372 kts 294°
2026-04-28 23:53 28.82651 -107.45616 38425 ft 372 kts 294°
2026-04-28 23:53 28.85395 -107.50638 38420 ft 373 kts 294°
2026-04-28 23:54 28.88106 -107.55605 38411 ft 372 kts 294°
2026-04-28 23:54 28.90828 -107.60603 38407 ft 372 kts 294°
2026-04-28 23:55 28.93570 -107.65636 38409 ft 371 kts 293°
2026-04-28 23:55 28.96284 -107.70634 38410 ft 372 kts 293°
2026-04-28 23:56 28.98989 -107.75611 38409 ft 371 kts 293°
2026-04-28 23:56 29.01710 -107.80630 38414 ft 371 kts 293°
2026-04-28 23:57 29.04423 -107.85636 38411 ft 371 kts 293°
2026-04-28 23:57 29.07120 -107.90620 38417 ft 371 kts 293°
2026-04-28 23:58 29.09830 -107.95640 38413 ft 371 kts 294°
2026-04-28 23:58 29.12534 -108.00646 38403 ft 371 kts 293°
2026-04-28 23:59 29.15230 -108.05646 38401 ft 371 kts 293°
2026-04-28 23:59 29.17936 -108.10671 38392 ft 371 kts 293°
2026-04-29 00:00 29.20634 -108.15689 38383 ft 370 kts 293°
2026-04-29 00:00 29.23332 -108.20711 38381 ft 371 kts 293°
2026-04-29 00:01 29.26030 -108.25741 38373 ft 371 kts 292°
2026-04-29 00:01 29.28711 -108.30745 38348 ft 370 kts 293°
2026-04-29 00:02 29.31396 -108.35761 38324 ft 370 kts 292°
2026-04-29 00:02 29.34082 -108.40789 38312 ft 369 kts 292°
2026-04-29 00:03 29.36748 -108.45780 38308 ft 369 kts 292°
2026-04-29 00:03 29.39410 -108.50774 38301 ft 368 kts 292°
2026-04-29 00:04 29.42078 -108.55785 38297 ft 368 kts 292°
2026-04-29 00:04 29.44743 -108.60793 38298 ft 369 kts 292°
2026-04-29 00:05 29.47414 -108.65823 38286 ft 369 kts 291°
2026-04-29 00:05 29.50060 -108.70817 38281 ft 368 kts 291°
2026-04-29 00:06 29.52729 -108.75847 38272 ft 368 kts 291°
2026-04-29 00:06 29.55372 -108.80836 38253 ft 367 kts 291°
2026-04-29 00:07 29.58017 -108.85848 38223 ft 368 kts 291°
2026-04-29 00:07 29.60661 -108.90859 38197 ft 367 kts 291°
2026-04-29 00:08 29.63301 -108.95864 38172 ft 367 kts 291°
2026-04-29 00:08 29.65938 -109.00871 38146 ft 367 kts 291°
2026-04-29 00:09 29.68574 -109.05884 38128 ft 367 kts 291°
2026-04-29 00:09 29.71216 -109.10906 38123 ft 367 kts 291°
2026-04-29 00:10 29.73847 -109.15924 38121 ft 367 kts 291°
2026-04-29 00:10 29.76468 -109.20923 38122 ft 366 kts 291°
2026-04-29 00:11 29.79103 -109.25956 38118 ft 366 kts 291°
2026-04-29 00:12 29.83020 -109.33451 38121 ft 366 kts 291°
2026-04-29 00:12 29.85639 -109.38467 38128 ft 366 kts 291°
2026-04-29 00:13 29.88259 -109.43495 38137 ft 366 kts 291°
2026-04-29 00:13 29.90878 -109.48523 38153 ft 367 kts 291°
2026-04-29 00:14 29.93493 -109.53552 38165 ft 365 kts 291°
2026-04-29 00:14 29.96042 -109.58593 38161 ft 364 kts 289°
2026-04-29 00:15 29.98489 -109.63733 38149 ft 365 kts 289°
2026-04-29 00:15 30.00940 -109.68870 38131 ft 365 kts 289°
2026-04-29 00:16 30.03373 -109.73962 38120 ft 365 kts 289°
2026-04-29 00:16 30.05827 -109.79104 38116 ft 365 kts 288°
2026-04-29 00:17 30.08275 -109.84232 38127 ft 364 kts 288°
2026-04-29 00:17 30.10703 -109.89326 38133 ft 365 kts 289°
2026-04-29 00:18 30.13150 -109.94471 38148 ft 364 kts 289°
2026-04-29 00:18 30.15588 -109.99597 38158 ft 364 kts 289°
2026-04-29 00:19 30.18025 -110.04723 38159 ft 364 kts 289°
2026-04-29 00:19 30.20442 -110.09821 38141 ft 365 kts 288°
2026-04-29 00:20 30.22886 -110.14985 38136 ft 364 kts 288°
2026-04-29 00:20 30.25310 -110.20110 38127 ft 364 kts 289°
2026-04-29 00:21 30.27740 -110.25253 38121 ft 365 kts 288°
2026-04-29 00:21 30.30151 -110.30360 38123 ft 364 kts 289°
2026-04-29 00:22 30.32579 -110.35510 38137 ft 364 kts 289°
2026-04-29 00:22 30.34990 -110.40642 38144 ft 364 kts 289°
2026-04-29 00:23 30.37402 -110.45769 38145 ft 363 kts 288°
2026-04-29 00:23 30.39805 -110.50895 38150 ft 364 kts 289°
2026-04-29 00:24 30.42219 -110.56042 38157 ft 364 kts 288°
2026-04-29 00:24 30.44626 -110.61189 38148 ft 364 kts 289°
2026-04-29 00:25 30.47021 -110.66309 38156 ft 364 kts 288°
2026-04-29 00:25 30.49429 -110.71472 38147 ft 364 kts 288°
2026-04-29 00:26 30.51822 -110.76601 38142 ft 364 kts 288°
2026-04-29 00:26 30.54213 -110.81735 38137 ft 362 kts 288°
2026-04-29 00:27 30.56620 -110.86913 38135 ft 362 kts 288°
2026-04-29 00:27 30.58999 -110.92036 38122 ft 363 kts 288°
2026-04-29 00:28 30.61395 -110.97206 38116 ft 363 kts 288°
2026-04-29 00:28 30.63786 -111.02361 38120 ft 364 kts 287°
2026-04-29 00:29 30.66161 -111.07498 38116 ft 362 kts 287°
2026-04-29 00:29 30.68532 -111.12629 38118 ft 361 kts 287°
2026-04-29 00:30 30.70903 -111.17767 38114 ft 362 kts 287°
2026-04-29 00:30 30.73252 -111.22868 38109 ft 361 kts 287°
2026-04-29 00:31 30.75619 -111.28001 38107 ft 361 kts 287°
2026-04-29 00:31 30.77976 -111.33144 38106 ft 362 kts 287°
2026-04-29 00:32 30.80333 -111.38287 38100 ft 361 kts 287°
2026-04-29 00:32 30.82683 -111.43406 38097 ft 359 kts 287°
2026-04-29 00:33 30.85016 -111.48516 38096 ft 357 kts 288°
2026-04-29 00:33 30.87345 -111.53615 38081 ft 359 kts 287°
2026-04-29 00:34 30.89670 -111.58714 38083 ft 358 kts 288°
2026-04-29 00:34 30.92003 -111.63823 38072 ft 358 kts 287°
2026-04-29 00:35 30.94329 -111.68932 38068 ft 358 kts 287°
2026-04-29 00:35 30.96664 -111.74068 38066 ft 357 kts 286°
2026-04-29 00:36 30.98967 -111.79151 38064 ft 356 kts 286°
2026-04-29 00:36 31.01288 -111.84274 38053 ft 357 kts 286°
2026-04-29 00:37 31.03594 -111.89362 38053 ft 356 kts 286°
2026-04-29 00:37 31.05892 -111.94445 38038 ft 356 kts 286°
2026-04-29 00:38 31.08197 -111.99568 38034 ft 355 kts 286°
2026-04-29 00:38 31.10496 -112.04667 38026 ft 357 kts 286°
2026-04-29 00:39 31.12797 -112.09773 38038 ft 356 kts 286°
2026-04-29 00:39 31.15097 -112.14877 38034 ft 356 kts 287°
2026-04-29 00:40 31.17394 -112.20005 38042 ft 356 kts 286°
2026-04-29 00:40 31.19677 -112.25101 38039 ft 357 kts 286°
2026-04-29 00:41 31.21980 -112.30237 38028 ft 356 kts 286°
2026-04-29 00:41 31.24257 -112.35331 38026 ft 356 kts 285°
2026-04-29 00:42 31.26544 -112.40458 38014 ft 356 kts 286°
2026-04-29 00:42 31.28837 -112.45592 38020 ft 355 kts 287°
2026-04-29 00:43 31.31112 -112.50705 38012 ft 355 kts 287°
2026-04-29 00:43 31.33381 -112.55798 38003 ft 356 kts 287°
2026-04-29 00:44 31.35652 -112.60920 38006 ft 355 kts 287°
2026-04-29 00:44 31.37923 -112.66046 38002 ft 355 kts 286°
2026-04-29 00:45 31.40196 -112.71174 37993 ft 355 kts 285°
2026-04-29 00:45 31.42453 -112.76278 37984 ft 355 kts 285°
2026-04-29 00:46 31.44706 -112.81383 37986 ft 355 kts 286°
2026-04-29 00:46 31.46964 -112.86502 37981 ft 354 kts 285°
2026-04-29 00:47 31.49224 -112.91621 37977 ft 353 kts 285°
2026-04-29 00:47 31.51465 -112.96732 37970 ft 354 kts 286°
2026-04-29 00:48 31.53707 -113.01833 37964 ft 354 kts 285°
2026-04-29 00:48 31.55956 -113.06953 37957 ft 354 kts 285°
2026-04-29 00:49 31.58190 -113.12063 37954 ft 353 kts 286°
2026-04-29 00:49 31.60434 -113.17194 37956 ft 353 kts 286°
2026-04-29 00:50 31.62663 -113.22295 37953 ft 352 kts 285°
2026-04-29 00:50 31.64885 -113.27402 37944 ft 353 kts 286°
2026-04-29 00:51 31.67121 -113.32516 37949 ft 354 kts 285°
2026-04-29 00:51 31.69340 -113.37627 37969 ft 352 kts 285°
2026-04-29 00:52 31.71569 -113.42758 37977 ft 352 kts 285°
2026-04-29 00:52 31.73786 -113.47866 37993 ft 353 kts 285°
2026-04-29 00:53 31.75996 -113.52972 38014 ft 352 kts 286°
2026-04-29 00:53 31.78206 -113.58088 37995 ft 352 kts 285°
2026-04-29 00:54 31.80426 -113.63216 37978 ft 353 kts 285°
2026-04-29 00:54 31.82631 -113.68335 37962 ft 352 kts 284°
2026-04-29 00:55 31.84838 -113.73457 37942 ft 352 kts 284°
2026-04-29 00:55 31.87032 -113.78571 37938 ft 352 kts 285°
2026-04-29 00:56 31.89239 -113.83701 37934 ft 351 kts 285°
2026-04-29 00:56 31.91438 -113.88827 37934 ft 353 kts 284°
2026-04-29 00:57 31.93643 -113.93987 37932 ft 351 kts 284°
2026-04-29 00:57 31.95829 -113.99087 37933 ft 352 kts 284°
2026-04-29 00:58 31.98023 -114.04224 37935 ft 351 kts 284°
2026-04-29 00:58 32.00217 -114.09375 37932 ft 352 kts 284°
2026-04-29 00:59 32.02410 -114.14526 37936 ft 352 kts 284°
2026-04-29 00:59 32.04599 -114.19675 37932 ft 353 kts 283°
2026-04-29 01:00 32.06777 -114.24805 37930 ft 351 kts 284°
2026-04-29 01:00 32.08962 -114.29961 37930 ft 352 kts 284°
2026-04-29 01:01 32.11150 -114.35121 37928 ft 355 kts 284°
2026-04-29 01:01 32.13340 -114.40305 37928 ft 353 kts 284°
2026-04-29 01:02 32.15522 -114.45474 37922 ft 354 kts 283°
2026-04-29 01:02 32.17708 -114.50666 37929 ft 353 kts 284°
2026-04-29 01:03 32.19913 -114.55882 37930 ft 356 kts 283°
2026-04-29 01:03 32.22092 -114.61079 37925 ft 352 kts 284°
2026-04-29 01:04 32.24278 -114.66290 37933 ft 356 kts 283°
2026-04-29 01:04 32.26458 -114.71495 37920 ft 355 kts 283°
2026-04-29 01:05 32.28643 -114.76710 37920 ft 357 kts 283°
2026-04-29 01:05 32.30833 -114.81956 37918 ft 355 kts 283°
2026-04-29 01:06 32.33014 -114.87189 37921 ft 356 kts 283°
2026-04-29 01:06 32.35204 -114.92428 37922 ft 356 kts 283°
2026-04-29 01:07 32.37390 -114.97692 37923 ft 358 kts 283°
2026-04-29 01:07 32.39587 -115.02977 37921 ft 356 kts 282°
2026-04-29 01:08 32.41768 -115.08225 37928 ft 357 kts 282°
2026-04-29 01:08 32.43946 -115.13488 37924 ft 359 kts 282°
2026-04-29 01:09 32.46137 -115.18781 37926 ft 360 kts 282°
2026-04-29 01:09 32.48338 -115.24130 37926 ft 357 kts 283°
2026-04-29 01:10 32.50501 -115.29362 37938 ft 357 kts 282°
2026-04-29 01:10 32.52696 -115.34683 37934 ft 361 kts 282°
2026-04-29 01:11 32.54872 -115.39990 37933 ft 358 kts 283°
2026-04-29 01:11 32.57069 -115.45331 37929 ft 361 kts 283°
2026-04-29 01:12 32.59253 -115.50655 37931 ft 363 kts 283°
2026-04-29 01:12 32.61445 -115.56016 37931 ft 361 kts 283°
2026-04-29 01:13 32.63634 -115.61356 37932 ft 361 kts 282°
2026-04-29 01:13 32.65999 -115.66676 37944 ft 370 kts 286°
2026-04-29 01:14 32.68717 -115.71886 37939 ft 375 kts 288°
2026-04-29 01:14 32.71477 -115.77110 37933 ft 375 kts 287°
2026-04-29 01:15 32.74250 -115.82369 37944 ft 376 kts 288°
2026-04-29 01:15 32.77002 -115.87593 37935 ft 375 kts 288°
2026-04-29 01:16 32.79769 -115.92857 37950 ft 377 kts 288°
2026-04-29 01:16 32.82479 -115.98157 37816 ft 376 kts 286°
2026-04-29 01:16 32.83798 -116.00808 37487 ft 376 kts 287°
2026-04-29 01:17 32.85122 -116.03468 37009 ft 374 kts 287°
2026-04-29 01:17 32.86458 -116.06136 36384 ft 374 kts 287°
2026-04-29 01:17 32.87775 -116.08779 35767 ft 374 kts 288°
2026-04-29 01:17 32.89107 -116.11444 35179 ft 373 kts 288°
2026-04-29 01:18 32.90421 -116.14078 34632 ft 371 kts 288°
2026-04-29 01:18 32.93047 -116.19334 33541 ft 370 kts 289°
2026-04-29 01:18 32.94342 -116.21933 33055 ft 371 kts 289°
2026-04-29 01:19 32.95670 -116.24596 32513 ft 371 kts 290°
2026-04-29 01:19 32.96970 -116.27208 31963 ft 371 kts 290°
2026-04-29 01:19 32.98296 -116.29864 31394 ft 372 kts 290°
2026-04-29 01:19 32.99601 -116.32488 30835 ft 372 kts 291°
2026-04-29 01:20 33.00908 -116.35123 30261 ft 372 kts 291°
2026-04-29 01:20 33.02238 -116.37793 29672 ft 373 kts 291°
2026-04-29 01:20 33.03536 -116.40430 29070 ft 372 kts 291°
2026-04-29 01:20 33.04755 -116.43148 28412 ft 371 kts 288°
2026-04-29 01:21 33.05854 -116.45898 27795 ft 369 kts 287°
2026-04-29 01:21 33.06908 -116.48692 27170 ft 370 kts 287°
2026-04-29 01:21 33.07949 -116.51456 26550 ft 371 kts 288°
2026-04-29 01:21 33.09003 -116.54251 26087 ft 367 kts 288°
2026-04-29 01:22 33.10041 -116.57014 25665 ft 363 kts 288°
2026-04-29 01:22 33.11065 -116.59750 25255 ft 359 kts 288°
2026-04-29 01:22 33.12043 -116.62450 24833 ft 354 kts 286°
2026-04-29 01:22 33.12855 -116.65169 24406 ft 349 kts 282°
2026-04-29 01:23 33.13508 -116.67947 23966 ft 346 kts 279°
2026-04-29 01:23 33.14002 -116.70751 23437 ft 345 kts 277°
2026-04-29 01:23 33.14423 -116.73567 22959 ft 345 kts 277°
2026-04-29 01:23 33.14836 -116.76343 22529 ft 343 kts 277°
2026-04-29 01:24 33.15248 -116.79132 22132 ft 340 kts 277°
2026-04-29 01:24 33.15658 -116.81895 21744 ft 338 kts 277°
2026-04-29 01:24 33.16060 -116.84634 21370 ft 336 kts 277°
2026-04-29 01:24 33.16457 -116.87354 20992 ft 335 kts 277°
2026-04-29 01:25 33.16855 -116.90077 20626 ft 335 kts 277°
2026-04-29 01:25 33.17254 -116.92806 20258 ft 333 kts 276°
2026-04-29 01:25 33.17649 -116.95525 19875 ft 333 kts 277°
2026-04-29 01:25 33.18042 -116.98222 19477 ft 333 kts 277°
2026-04-29 01:26 33.18435 -117.00935 19060 ft 332 kts 277°
2026-04-29 01:26 33.18826 -117.03632 18639 ft 331 kts 277°